[[{"header":{"parameterUnit":"m.s-1","parameterCategory":1,"la1":30.2991,"la2":30.254,"lo1":-89.0895,"lo2":-89.0444,"dy":0.0017,"dx":0.0017,"nx":28,"ny":28,"refTime":"2024-04-24T21:00:00:Z","depth":0,"parameterNumber":2,"parameterNumberName":"U-component_of_WINDS"},"data":[0,0,0,0,0,0,0,0,0,0,0,0,0,0,0,0,0,0,0,0,0,0,0,0,0,0,0,0,0,0,0,0,0,0,0,0,0,0,0,0,0,0,0,0,0,0,0,0,0,0,0,0,0,0,0,0,0,0,0.6918,0.6919,0,0.696,0.6961,0.6961,0.6933,0.6932,0.693,0.6929,0.6974,0.6977,0.6979,0,0,0,0,0,0,0,0,0,0,0,0,0,0.6816,0.6818,0.6918,0.6919,0.6919,0.696,0.6961,0.6961,0.6933,0.6932,0.693,0.6929,0.6973,0.6976,0.6979,0,0,0,0,0,0,0,0,0,0,0,0,0,0.686,0.6819,0.6918,0.691,0.691,0.696,0.6961,0.6961,0.6934,0.6932,0.693,0.6928,0.6972,0.6976,0.698,0.704,0,0,0.699,0.6992,0,0,0,0,0,0,0,0,0.6857,0.6863,0.6911,0.6911,0.6911,0.6939,0.6941,0.6988,0.6934,0.6925,0.6929,0.6927,0.6964,0.6968,0.6981,0.7042,0.7044,0.6991,0.6993,0.6994,0.6996,0,0,0,0,0,0,0,0.6854,0.6861,0.6935,0.6912,0.6912,0.6905,0.6909,0.695,0.6955,0.6925,0.6923,0.6929,0.6964,0.6977,0.6981,0.7045,0.6991,0.6994,0.6996,0.6997,0.7158,0.716,0,0,0,0,0,0,0.6852,0.6859,0.6934,0.6936,0.6879,0.6909,0.6913,0.6932,0.6954,0.6956,0.693,0.6927,0.6972,0.6977,0.6983,0.7055,0.6994,0.6998,0.7,0.7156,0.7159,0.7161,0,0,0,0,0,0,0.685,0.6859,0.6932,0.6897,0.6906,0.6912,0.6934,0.6934,0.6947,0.6958,0.6959,0.6943,0.6971,0.6978,0.7026,0.7056,0.6999,0.7003,0.7153,0.7157,0.716,0.72,0,0,0,0,0,0,0.6847,0.6858,0.6881,0.6898,0.6908,0.6974,0.6936,0.6936,0.6953,0.695,0.697,0.6972,0.697,0.7021,0.7029,0.706,0.7006,0.7151,0.7155,0.7159,0.7196,0.7204,0.7211,0,0,0,0,0,0.6843,0.6891,0.6882,0.6891,0.6936,0.6975,0.6981,0.6978,0.6956,0.6979,0.6986,0.6971,0.7051,0.7026,0.7035,0.7068,0.7149,0.7154,0.7158,0.7192,0.7202,0.7211,0,0,0,0,0,0,0.6878,0.6893,0.6883,0.6938,0.6955,0.6971,0.7,0.6988,0.7013,0.7009,0.7004,0.7009,0.7059,0.7068,0.7039,0.7127,0.7097,0.7104,0.7119,0.7129,0.7136,0.7133,0.7008,0,0,0,0,0,0.6892,0.6922,0.6933,0.698,0.699,0.6993,0.701,0.7006,0.7024,0.7032,0.7042,0.7061,0.7091,0.711,0.7138,0.7197,0.7201,0.7224,0.7231,0.7238,0.7243,0.7275,0.7285,0.7176,0.7176,0.7176,0,0,0.6921,0.6933,0.6952,0.6988,0.7001,0.7032,0.7,0.7035,0.7058,0.7037,0.7083,0.7091,0.7112,0.7166,0.719,0.7175,0.7274,0.7244,0.7248,0.7251,0.7281,0.7291,0.73,0.718,0.7179,0.7179,0,0,0.699,0.7002,0.7042,0.7056,0.7076,0.7078,0.7088,0.7105,0.7109,0.7155,0.714,0.7168,0.7219,0.7234,0.7249,0.7324,0.7311,0.7333,0.7372,0.7403,0.7411,0.7419,0.7445,0.7454,0.7339,0.7339,0.7339,0,0.7023,0.707,0.7064,0.71,0.7116,0.7098,0.7139,0.7153,0.7181,0.7193,0.7176,0.7239,0.7252,0.7309,0.7327,0.734,0.735,0.733,0.741,0.7418,0.7425,0.745,0.746,0.7341,0.7341,0.7341,0.7341,0,0.711,0.7142,0.7172,0.7199,0.7219,0.7257,0.7258,0.7279,0.7273,0.7277,0.7323,0.7338,0.7368,0.7382,0.7377,0.7438,0.7428,0.7411,0.738,0.7438,0.7461,0.7471,0.7345,0.7344,0.7343,0.7343,0,0,0.7201,0.7225,0.7236,0.7248,0.7269,0.7294,0.7331,0.736,0.7378,0.7398,0.743,0.7473,0.7457,0.7474,0.747,0.7497,0.7555,0.7477,0.7477,0.749,0.7623,0.7635,0.7646,0.7547,0.7549,0.755,0.7621,0,0.7271,0.7335,0.7332,0.7392,0.7422,0.7405,0.7438,0.7455,0.746,0.7486,0.7492,0.7522,0.7499,0.7509,0.7535,0.7542,0.7581,0.7537,0.7576,0.7577,0.757,0.7658,0.7671,0.7737,0.763,0.7631,0.7632,0,0.736,0.7383,0.7446,0.7462,0.7475,0.7504,0.753,0.7555,0.7574,0.7576,0.7594,0.7586,0.7625,0.7593,0.7646,0.7616,0.7632,0.7638,0.764,0.7643,0.7608,0.7663,0.7758,0.7767,0.7647,0.7646,0.7645,0,0.742,0.7466,0.751,0.7521,0.7541,0.7562,0.7571,0.7588,0.7605,0.7628,0.764,0.7667,0.7682,0.7704,0.7704,0.7681,0.7758,0.7726,0.776,0.776,0.7776,0.7775,0.7874,0.7788,0.7788,0.7787,0.7787,0,0.7497,0.7537,0.7537,0.7564,0.7607,0.7603,0.7647,0.7654,0.7669,0.7697,0.7685,0.7712,0.7711,0.7738,0.7739,0.7782,0.7789,0.7792,0.7791,0.7792,0.7792,0.7802,0.7797,0.779,0.7789,0.7789,0.7789,0,0.7571,0.7573,0.7619,0.7634,0.7639,0.767,0.7683,0.7709,0.7713,0.7749,0.7757,0.7763,0.7795,0.7797,0.7834,0.7834,0.7887,0.7882,0.788,0.7879,0.7912,0.7909,0.8021,0.8035,0.794,0.7941,0.7942,0,0.762,0.7649,0.7667,0.7685,0.7695,0.7724,0.7742,0.7739,0.7758,0.7781,0.7804,0.7835,0.7859,0.791,0.7919,0.7947,0.7942,0.7979,0.7946,0.7946,0.7941,0.7939,0.7942,0.7985,0.7987,0.7987,0.7988,0,0.7706,0.7705,0.7731,0.7756,0.7777,0.7798,0.7817,0.7832,0.7832,0.7854,0.7885,0.7904,0.7941,0.7972,0.7999,0.801,0.7999,0.7999,0.8008,0.8009,0.8006,0.8007,0.7897,0.7996,0.7995,0.7995,0.7994,0.7994,0.7768,0.7794,0.781,0.7838,0.7852,0.787,0.7895,0.7901,0.7928,0.7957,0.7954,0.7989,0.8008,0.8043,0.8056,0.8084,0.8071,0.8084,0.8088,0.8091,0.8094,0.8002,0.8089,0.8089,0.8088,0.8088,0.8088,0,0.7853,0.7863,0.7889,0.7915,0.7938,0.7926,0.7946,0.7966,0.7996,0.8014,0.8038,0.8074,0.8103,0.8114,0.8143,0.8163,0.8159,0.8171,0.8169,0.8171,0.8104,0.8093,0.8173,0.8173,0.8173,0.8173,0.8173,0.8173,0.79,0.7942,0.7943,0.7992,0.8002,0.8035,0.8048,0.8064,0.8078,0.8119,0.8143,0.8149,0.8164,0.8194,0.822,0.8223,0.8233,0.8247,0.8247,0.8184,0.8176,0.8168,0.8157,0.825,0.825,0.8312,0.8313,0.8313]},{"header":{"parameterUnit":"m.s-1","parameterCategory":1,"la1":30.2991,"la2":30.254,"lo1":-89.0895,"lo2":-89.0444,"dy":0.0017,"dx":0.0017,"nx":28,"ny":28,"refTime":"2024-04-24T21:00:00:Z","depth":0,"parameterNumber":3,"parameterNumberName":"V-component_of_WINDS"},"data":[0,0,0,0,0,0,0,0,0,0,0,0,0,0,0,0,0,0,0,0,0,0,0,0,0,0,0,0,0,0,0,0,0,0,0,0,0,0,0,0,0,0,0,0,0,0,0,0,0,0,0,0,0,0,0,0,0,0,-0.153,-0.1529,0,-0.1506,-0.1506,-0.1506,-0.152,-0.1521,-0.1522,-0.1522,-0.1495,-0.1494,-0.1493,0,0,0,0,0,0,0,0,0,0,0,0,0,-0.1584,-0.1583,-0.153,-0.1529,-0.1529,-0.1506,-0.1506,-0.1506,-0.152,-0.1521,-0.1522,-0.1523,-0.1496,-0.1494,-0.1493,0,0,0,0,0,0,0,0,0,0,0,0,0,-0.156,-0.1582,-0.153,-0.1534,-0.1534,-0.1507,-0.1506,-0.1506,-0.152,-0.1521,-0.1522,-0.1523,-0.1496,-0.1494,-0.1492,-0.1459,0,0,-0.1486,-0.1485,0,0,0,0,0,0,0,0,-0.1562,-0.1558,-0.1533,-0.1533,-0.1533,-0.1517,-0.1515,-0.149,-0.152,-0.1525,-0.1522,-0.1524,-0.1502,-0.1499,-0.1493,-0.1458,-0.1457,-0.1486,-0.1485,-0.1484,-0.1483,0,0,0,0,0,0,0,-0.1563,-0.1559,-0.152,-0.1533,-0.1533,-0.1536,-0.1533,-0.1511,-0.1508,-0.1525,-0.1526,-0.1523,-0.1502,-0.1494,-0.1492,-0.1456,-0.1486,-0.1484,-0.1483,-0.1482,-0.1393,-0.1391,0,0,0,0,0,0,-0.1565,-0.1561,-0.1521,-0.152,-0.155,-0.1534,-0.1531,-0.1521,-0.1508,-0.1507,-0.1522,-0.1524,-0.1497,-0.1494,-0.1491,-0.1451,-0.1484,-0.1482,-0.1481,-0.1394,-0.1392,-0.1391,0,0,0,0,0,0,-0.1566,-0.1561,-0.1522,-0.154,-0.1536,-0.1532,-0.1521,-0.152,-0.1513,-0.1506,-0.1505,-0.1515,-0.1498,-0.1494,-0.1467,-0.145,-0.1481,-0.1479,-0.1395,-0.1393,-0.1392,-0.137,0,0,0,0,0,0,-0.1568,-0.1562,-0.1549,-0.154,-0.1535,-0.1499,-0.152,-0.1519,-0.151,-0.1512,-0.15,-0.1498,-0.1499,-0.147,-0.1465,-0.1448,-0.1478,-0.1397,-0.1394,-0.1392,-0.1372,-0.1368,-0.1364,0,0,0,0,0,-0.1569,-0.1544,-0.1549,-0.1544,-0.152,-0.1498,-0.1495,-0.1497,-0.1509,-0.1496,-0.1491,-0.1499,-0.1453,-0.1467,-0.1462,-0.1444,-0.1398,-0.1395,-0.1392,-0.1374,-0.1369,-0.1364,0,0,0,0,0,0,-0.155,-0.1543,-0.1548,-0.1519,-0.1509,-0.1501,-0.1485,-0.1491,-0.1477,-0.1479,-0.1481,-0.1478,-0.145,-0.1444,-0.146,-0.141,-0.1427,-0.1423,-0.1415,-0.141,-0.1406,-0.1407,-0.1476,0,0,0,0,0,-0.1543,-0.1527,-0.1521,-0.1495,-0.149,-0.1488,-0.1479,-0.1481,-0.1471,-0.1467,-0.146,-0.1449,-0.1432,-0.1421,-0.1405,-0.1372,-0.1369,-0.1357,-0.1353,-0.1349,-0.1345,-0.1327,-0.1321,-0.1382,-0.1383,-0.1383,0,0,-0.1526,-0.152,-0.151,-0.1491,-0.1484,-0.1467,-0.1485,-0.1466,-0.1452,-0.1463,-0.1438,-0.1433,-0.142,-0.139,-0.1376,-0.1384,-0.1328,-0.1346,-0.1343,-0.1341,-0.1324,-0.1318,-0.1313,-0.1381,-0.1381,-0.1381,0,0,-0.1488,-0.1482,-0.146,-0.1453,-0.1442,-0.1441,-0.1436,-0.1427,-0.1424,-0.1399,-0.1407,-0.1391,-0.1362,-0.1352,-0.1344,-0.1303,-0.1309,-0.1297,-0.1275,-0.1257,-0.1253,-0.1248,-0.1233,-0.1227,-0.1294,-0.1294,-0.1294,0,-0.1469,-0.1444,-0.1448,-0.1429,-0.142,-0.143,-0.1408,-0.14,-0.1384,-0.1377,-0.1387,-0.1351,-0.1343,-0.1311,-0.1301,-0.1294,-0.1287,-0.1298,-0.1253,-0.1249,-0.1245,-0.123,-0.1224,-0.1293,-0.1293,-0.1293,-0.1293,0,-0.1421,-0.1403,-0.1387,-0.1373,-0.1362,-0.1341,-0.1341,-0.133,-0.1333,-0.1331,-0.1304,-0.1296,-0.1278,-0.1271,-0.1273,-0.1239,-0.1244,-0.1253,-0.127,-0.1238,-0.1224,-0.1218,-0.1291,-0.1291,-0.1292,-0.1292,0,0,-0.1368,-0.1357,-0.1351,-0.1345,-0.1334,-0.132,-0.1299,-0.1283,-0.1273,-0.1262,-0.1244,-0.1219,-0.1228,-0.1219,-0.122,-0.1205,-0.1172,-0.1216,-0.1216,-0.1207,-0.1132,-0.1124,-0.1118,-0.1176,-0.1175,-0.1174,-0.1133,0,-0.1329,-0.1294,-0.1297,-0.1263,-0.1247,-0.1257,-0.1238,-0.1229,-0.1227,-0.1212,-0.1209,-0.1191,-0.1204,-0.1199,-0.1184,-0.1179,-0.1157,-0.1182,-0.1158,-0.1157,-0.116,-0.1111,-0.1102,-0.1063,-0.1128,-0.1127,-0.1126,0,-0.1278,-0.1266,-0.1231,-0.1223,-0.1216,-0.12,-0.1185,-0.1171,-0.1161,-0.116,-0.115,-0.1154,-0.1132,-0.115,-0.1119,-0.1137,-0.1127,-0.1124,-0.1122,-0.1119,-0.1139,-0.1105,-0.1051,-0.1045,-0.1118,-0.1118,-0.1119,0,-0.1242,-0.1217,-0.1193,-0.1187,-0.1178,-0.1166,-0.1161,-0.1152,-0.1142,-0.1129,-0.1123,-0.1107,-0.1098,-0.1085,-0.1085,-0.1099,-0.1054,-0.1072,-0.1052,-0.1051,-0.1041,-0.1041,-0.0983,-0.1036,-0.1036,-0.1036,-0.1037,0,-0.1197,-0.1175,-0.1177,-0.1162,-0.1137,-0.1141,-0.1116,-0.1112,-0.1104,-0.1088,-0.1096,-0.108,-0.1081,-0.1065,-0.1065,-0.1039,-0.1035,-0.1033,-0.1033,-0.1032,-0.1032,-0.1025,-0.1027,-0.1035,-0.1035,-0.1036,-0.1036,0,-0.1152,-0.1153,-0.1127,-0.1121,-0.1118,-0.11,-0.1094,-0.1079,-0.1078,-0.1057,-0.1052,-0.105,-0.1031,-0.103,-0.1008,-0.1008,-0.0977,-0.098,-0.098,-0.0981,-0.096,-0.0962,-0.0895,-0.0886,-0.0945,-0.0945,-0.0944,0,-0.1123,-0.1106,-0.1098,-0.1089,-0.1083,-0.1067,-0.1058,-0.1061,-0.105,-0.1037,-0.1024,-0.1007,-0.0993,-0.0962,-0.0958,-0.0941,-0.0943,-0.0921,-0.0941,-0.094,-0.0942,-0.0943,-0.0941,-0.0917,-0.0916,-0.0916,-0.0915,0,-0.1071,-0.1072,-0.1058,-0.1045,-0.1033,-0.1023,-0.1012,-0.1004,-0.1006,-0.0993,-0.0975,-0.0964,-0.0943,-0.0925,-0.0909,-0.0903,-0.0909,-0.0909,-0.0904,-0.0902,-0.0902,-0.0901,-0.0969,-0.0911,-0.0911,-0.0911,-0.0912,-0.0912,-0.1032,-0.1018,-0.101,-0.0994,-0.0988,-0.0978,-0.0964,-0.0961,-0.0946,-0.093,-0.0933,-0.0912,-0.0902,-0.0881,-0.0874,-0.0857,-0.0865,-0.0856,-0.0854,-0.0852,-0.0849,-0.0906,-0.0854,-0.0854,-0.0855,-0.0855,-0.0855,0,-0.0979,-0.0975,-0.0961,-0.0947,-0.0935,-0.0944,-0.0933,-0.0921,-0.0904,-0.0894,-0.0881,-0.086,-0.0843,-0.0837,-0.082,-0.0808,-0.081,-0.0803,-0.0803,-0.0802,-0.0844,-0.085,-0.0801,-0.0801,-0.0802,-0.0802,-0.0802,-0.0802,-0.0951,-0.0927,-0.0927,-0.09,-0.0895,-0.0876,-0.0869,-0.086,-0.0853,-0.0829,-0.0815,-0.0812,-0.0804,-0.0787,-0.0771,-0.077,-0.0763,-0.0755,-0.0754,-0.0794,-0.0799,-0.0804,-0.081,-0.0753,-0.0753,-0.0713,-0.0713,-0.0713]}]]